TITAN 3C TRANSTAGE DEB, 28821

Orbit data source: Space-Track

TITAN 3C TRANSTAGE DEB, 28821 is space debris in HEO originally from a launch on Tue, 21 Dec 1965 UTC launched from the Air Force Eastern Test Range (AFETR). Debris objects in space refer to the collection of defunct objects orbiting the Earth. Examples of debris include non-operational satellites, rocket bodies, and fragments generated from explosions, collisions, or faulty payload assembly.

Loading next visibility...
Identifier
28821, 1965-108CJ
Orbit
HEO
Country
Flag of USUS
Related business
Manufacturer
Unknown
Mission
Spacecraft
Bus & Motor
Unknown
Mass
Unknown
Launch date (UTC)
1965-12-21 (60 years ago)
Launch vehicle
Unknown
Launch site
Air Force Eastern Test Range (AFETR)
Object type
Payload
Rocket body
Debris
Shape & HBR
Unknown
Radar Cross Section
Small (<0.1 m²)

Expand to show TLE details & history
Last TLE update: 2 months ago

TLE from 2 months ago
0 TITAN 3C TRANSTAGE DEB
1 28821U 65108CJ  26076.43682659  .00000011  00000-0  00000-0 0  9997
2 28821  28.3559  63.9743 6541083 205.3076  98.2198  2.63588996  4127
Epoch: 2026-03-17T10:29Z
TLE epoch observation values (Epoch: 2026-03-17T10:29:01.817Z)
Latitude
-0.00008°
Longitude
91.67866°
Altitude
24,611.775 km
Speed
2.778 km/s
True Right ascension
04h 15m 48s
True Declination
0° 00' 00"
Sunlit
Object was in daylight at epoch
Visualization orbit readout
Latitude
Unknown
Longitude
Unknown
Altitude
Unknown
Speed
Unknown
Apparent Right ascension
Unknown
Apparent Declination
Unknown
Sunlit
N/A
Visualization observer readout
Local Sidereal Time
16:17:21
Azimuth
Unknown
Elevation
Unknown
Doppler factor
Unknown
Orbital elements
Apogee altitude
30,243.763 km
Perigee altitude
1,279.893 km
Semi-major axis
22,139.965 km
Eccentricity
0.65411
Inclination
28.3559°
RAAN
63.9743°
Arg. of periapsis
205.3076°
True anomaly
154.7586°
Mean anomaly
98.2198°
Eccentric anomaly
127.82352°
Mean motion
0.65884 °/min
Orbital period
546.42 mins
BSTAR
0
Loading maneuver chart data...
Computing Atmospheric mass density...

Documentation

Showing up to 5 results
|